NWS006 UUEE-ULLI

Flight info

Callsign NWS006
Flight time N/A
Altitude 36000
Route TOKNU3H/24C TOKNU L4 NUDKO T561 ODATI T875 GENPA GENPA1B
Aircraft B772/H-SDE2E3FGHIJ5LORVWXY/LB1D1

Departure

Time 2026-04-30 17:41
Airport Sheremetyevo International Airport (UUEE)

Arrival

Time N/A
Airport Pulkovo Airport (ULLI)
Time Latitude Longitude Altitude Speed Heading
2026-04-30 17:39 55.94226 37.21098 4509 ft 260 kts 256°
2026-04-30 17:41 55.98792 36.99166 9607 ft 268 kts 320°
2026-04-30 17:42 56.01689 36.94514 10434 ft 288 kts 320°
2026-04-30 17:42 56.06584 36.86634 11136 ft 336 kts 320°
2026-04-30 17:43 56.10303 36.80625 11781 ft 359 kts 320°
2026-04-30 17:44 56.15763 36.71764 12193 ft 365 kts 320°
2026-04-30 17:44 56.21313 36.62721 14139 ft 370 kts 320°
2026-04-30 17:46 56.30665 36.47399 17137 ft 388 kts 321°
2026-04-30 17:47 56.37972 36.33796 19471 ft 405 kts 309°
2026-04-30 17:48 56.44346 36.17513 21797 ft 412 kts 310°
2026-04-30 17:48 56.49241 36.04951 23372 ft 419 kts 311°
2026-04-30 17:49 56.55811 35.87999 25175 ft 431 kts 312°
2026-04-30 17:50 56.62139 35.71553 26916 ft 439 kts 312°
2026-04-30 17:51 56.66985 35.58875 27978 ft 448 kts 311°
2026-04-30 17:52 56.72096 35.45396 29057 ft 456 kts 312°
2026-04-30 17:53 56.80805 35.22250 31171 ft 454 kts 311°
2026-04-30 17:54 56.87750 35.03644 32263 ft 456 kts 310°
2026-04-30 17:55 56.96038 34.88608 33152 ft 443 kts 332°
2026-04-30 17:56 57.05938 34.76827 34117 ft 448 kts 331°
2026-04-30 17:57 57.13231 34.68062 35181 ft 444 kts 331°
2026-04-30 17:58 57.20665 34.59074 36004 ft 445 kts 330°
2026-04-30 17:59 57.30704 34.46864 36166 ft 462 kts 330°
2026-04-30 18:00 57.41177 34.34030 36151 ft 469 kts 330°
2026-04-30 18:01 57.54079 34.18094 36152 ft 468 kts 330°
2026-04-30 18:02 57.69132 33.99330 36158 ft 467 kts 330°
2026-04-30 18:04 57.83903 33.80730 36156 ft 466 kts 330°
2026-04-30 18:06 58.03021 33.52486 36154 ft 467 kts 326°
2026-04-30 18:08 58.19117 33.27715 35664 ft 452 kts 325°
2026-04-30 18:09 58.28073 33.13816 33371 ft 433 kts 326°
2026-04-30 18:10 58.36637 33.00455 31093 ft 439 kts 326°
2026-04-30 18:11 58.45261 32.86891 28951 ft 416 kts 326°
2026-04-30 18:11 58.51500 32.77031 27193 ft 406 kts 326°
2026-04-30 18:12 58.57561 32.67403 25760 ft 392 kts 326°
2026-04-30 18:13 58.61525 32.61088 24604 ft 389 kts 326°
2026-04-30 18:13 58.66679 32.52839 23312 ft 372 kts 326°
2026-04-30 18:14 58.70990 32.45917 22334 ft 361 kts 326°
2026-04-30 18:15 58.76473 32.37093 21032 ft 368 kts 326°
2026-04-30 18:15 58.82144 32.27909 19672 ft 363 kts 325°
2026-04-30 18:16 58.85901 32.21800 18734 ft 358 kts 325°
2026-04-30 18:16 58.89486 32.15955 17847 ft 350 kts 325°
2026-04-30 18:17 58.91098 32.13323 17451 ft 350 kts 325°
2026-04-30 18:17 58.92907 32.10368 16943 ft 352 kts 325°
2026-04-30 18:17 58.96419 32.04613 15946 ft 347 kts 324°
2026-04-30 18:18 58.98129 32.01802 15517 ft 343 kts 324°
2026-04-30 18:18 58.99694 31.99228 15125 ft 339 kts 324°
2026-04-30 18:18 59.01407 31.96409 14687 ft 335 kts 324°
2026-04-30 18:18 59.03079 31.93652 14262 ft 332 kts 324°
2026-04-30 18:19 59.04732 31.90924 13840 ft 328 kts 324°
2026-04-30 18:19 59.06411 31.88150 13417 ft 325 kts 324°
2026-04-30 18:19 59.08040 31.85454 12998 ft 322 kts 324°
2026-04-30 18:19 59.09699 31.82708 12572 ft 329 kts 324°
2026-04-30 18:20 59.11374 31.79900 12137 ft 333 kts 322°
2026-04-30 18:20 59.12968 31.76887 11709 ft 331 kts 319°
2026-04-30 18:20 59.14393 31.74121 11297 ft 329 kts 319°
2026-04-30 18:20 59.15991 31.71047 10857 ft 329 kts 320°
2026-04-30 18:21 59.17549 31.68073 10687 ft 317 kts 320°
2026-04-30 18:21 59.19028 31.65253 10630 ft 303 kts 320°
2026-04-30 18:21 59.20464 31.62518 10518 ft 291 kts 320°
2026-04-30 18:21 59.21838 31.59904 10141 ft 284 kts 320°
2026-04-30 18:22 59.23173 31.57358 10058 ft 268 kts 320°
2026-04-30 18:22 59.25388 31.53125 10040 ft 236 kts 321°
2026-04-30 18:22 59.26472 31.51056 9904 ft 228 kts 321°
2026-04-30 18:23 59.27552 31.48997 9633 ft 228 kts 321°
2026-04-30 18:23 59.28638 31.46917 9363 ft 227 kts 320°
2026-04-30 18:23 59.29699 31.44881 9133 ft 225 kts 320°
2026-04-30 18:23 59.30781 31.42803 8856 ft 225 kts 320°
2026-04-30 18:24 59.32893 31.38741 8298 ft 225 kts 320°
2026-04-30 18:24 59.33975 31.36659 8060 ft 223 kts 319°
2026-04-30 18:24 59.35056 31.34573 7786 ft 224 kts 319°
2026-04-30 18:25 59.36121 31.32518 7532 ft 223 kts 319°
2026-04-30 18:25 59.38145 31.28608 7018 ft 223 kts 318°
2026-04-30 18:25 59.39196 31.26573 6787 ft 221 kts 318°
2026-04-30 18:26 59.41318 31.22464 6051 ft 230 kts 318°
2026-04-30 18:26 59.42448 31.20272 5556 ft 236 kts 317°
2026-04-30 18:26 59.43596 31.18045 5091 ft 241 kts 317°
2026-04-30 18:27 59.45725 31.14140 4929 ft 220 kts 319°
2026-04-30 18:27 59.46767 31.12245 4831 ft 212 kts 319°
2026-04-30 18:28 59.48802 31.08542 4285 ft 211 kts 319°
2026-04-30 18:28 59.49811 31.06700 4271 ft 195 kts 319°
2026-04-30 18:28 59.51807 31.03059 3617 ft 188 kts 319°
2026-04-30 18:29 59.52718 31.01397 3365 ft 183 kts 319°
2026-04-30 18:29 59.55342 30.96596 2976 ft 171 kts 319°
2026-04-30 18:30 59.57029 30.93507 2707 ft 169 kts 319°
2026-04-30 18:30 59.58747 30.90355 2475 ft 170 kts 319°
2026-04-30 18:31 59.59600 30.88787 2483 ft 170 kts 319°
2026-04-30 18:31 59.61337 30.85597 2482 ft 169 kts 319°
2026-04-30 18:32 59.63068 30.82418 2470 ft 169 kts 319°
2026-04-30 18:32 59.63937 30.80823 2476 ft 169 kts 319°
2026-04-30 18:32 59.65705 30.77573 2492 ft 169 kts 319°
2026-04-30 18:33 59.66584 30.75956 2477 ft 169 kts 319°
2026-04-30 18:33 59.68240 30.72909 2500 ft 170 kts 319°
2026-04-30 18:33 59.69101 30.71324 2409 ft 174 kts 319°
2026-04-30 18:34 59.69990 30.69669 2365 ft 173 kts 319°
2026-04-30 18:34 59.71684 30.66512 2353 ft 169 kts 319°
2026-04-30 18:34 59.72547 30.64901 2356 ft 169 kts 319°
2026-04-30 18:35 59.73390 30.63325 2367 ft 169 kts 319°
2026-04-30 18:35 59.74230 30.61755 2354 ft 168 kts 319°
2026-04-30 18:35 59.75044 30.60244 2353 ft 167 kts 319°
2026-04-30 18:36 59.76170 30.56557 2365 ft 160 kts 291°
2026-04-30 18:36 59.76478 30.54383 2355 ft 159 kts 291°
2026-04-30 18:36 59.77091 30.50305 2173 ft 154 kts 291°
2026-04-30 18:37 59.77385 30.48353 2000 ft 140 kts 292°
2026-04-30 18:37 59.77665 30.46519 1819 ft 137 kts 291°
2026-04-30 18:37 59.77944 30.44674 1630 ft 136 kts 291°
2026-04-30 18:37 59.78204 30.42953 1454 ft 135 kts 290°
2026-04-30 18:38 59.78451 30.41314 1287 ft 135 kts 290°
2026-04-30 18:38 59.78704 30.39643 1110 ft 135 kts 290°
2026-04-30 18:38 59.78955 30.37969 935 ft 136 kts 290°
2026-04-30 18:38 59.79218 30.36240 755 ft 138 kts 290°
2026-04-30 18:39 59.79480 30.34496 569 ft 139 kts 288°
2026-04-30 18:39 59.79739 30.32773 389 ft 140 kts 288°
2026-04-30 18:39 59.79987 30.31032 221 ft 139 kts 290°
2026-04-30 18:39 59.80265 30.29341 97 ft 135 kts 289°